Regional Weather Roundup
Issued by NWS Charleston, SC

Current Version | Previous Version | Text Only | Print | Product List | Glossary Off
Versions: 1 2 3 4 5 6 7 8 9 10 11 12 13 14 15 16 17 18 19 20 21 22 23 24 25 26 27 28 29 30 31 32 33 34 35 36 37 38 39 40 41 42 43 44 45 46 47 48 49 50

000
ASUS42 KCHS 302013
RWRCHS

REGIONAL WEATHER ROUNDUP
NATIONAL WEATHER SERVICE CHARLESTON SC
400 PM EDT MON MAY 30 2016

NOTE: "FAIR" INDICATES FEW OR NO CLOUDS BELOW 12,000 FEET WITH NO
SIGNIFICANT WEATHER AND/OR OBSTRUCTIONS TO VISIBILITY.

NOT ALL STATIONS ARE QUALITY CONTROLLED. USE DATA WITH CAUTION...
ESPECIALLY DEWPOINT OBSERVATIONS.

SCZ027-030-031-034>040-042>050-302100-
...SOUTHEAST SOUTH CAROLINA...

CITY           SKY/WX    TMP DP  RH WIND       PRES   REMARKS
N CHARLESTON   CLOUDY    75  70  84 NW9       29.88F
WATERFRONT PRK   N/A     75  70  84 W7        29.86F
MOUNT PLEASANT MOCLDY    75  70  83 SW6       29.87F
JOHNS ISLAND   CLOUDY    77  72  83 W10       29.88F
PINOPOLIS      NOT AVBL
MONCKS CORNER  DRIZZLE   72  68  88 NW5       29.87F
SUMMERVILLE    CLOUDY    75  72  88 NW7       29.89F
BEAUFORT MCAS  LGT RAIN  74  70  87 N12G21    29.90F
BEAUFORT ARPT  LGT RAIN  75  70  83 N8        29.90F
HILTON HEAD IS NOT AVBL
WALTERBORO     CLOUDY    77  77 100 NW7       29.91F
ALLENDALE      CLOUDY    84  68  58 NW8       29.89F

...SOUTHERN MIDLANDS AND PEE DEE...

CITY           SKY/WX    TMP DP  RH WIND       PRES   REMARKS
GEORGETOWN     CLOUDY    77  68  73 S9        29.87F
KINGSTREE      DRIZZLE   73  70  88 NE5       29.87S
ORANGEBURG     RAIN      74  70  87 CALM      29.90F FOG
BARNWELL       FAIR      88  72  58 N12G17    29.90F HX  94
AIKEN          MOCLDY    82  64  54 N10       29.95S
MANNING        HVY RAIN  72  70  94 NW8       29.88S
COLUMBIA       PTSUNNY   85  66  53 N10       29.88F
SUMTER         CLOUDY    76  71  84 N8        29.87F
FLORENCE       CLOUDY    79  71  76 N3        29.87F
MYRTLE BEACH   PTSUNNY   79  66  65 S9        29.90F
N MYRTLE BEACH MOSUNNY   79  71  76 SE8       29.88F

$$

GAZ063-065-086>088-099>101-113>116-118-119-134>141-150-302100-
...SOUTHEAST GEORGIA...

CITY           SKY/WX    TMP DP  RH WIND       PRES   REMARKS
SAVANNAH ARPT  PTSUNNY   86  68  54 NW12      29.89F
HUNTER AAF     MOSUNNY   87  72  61 VRB7      29.86F HX  93
FORT STEWART   SUNNY     89  64  42 NW8G20    29.87F HX  90
STATESBORO     PTSUNNY   85  70  61 N8        29.91F
SYLVANIA       MOCLDY    87  70  57 NW7       29.92F HX  92
CLAXTON        FAIR      89  66  45 NW6       29.91S HX  91

...CSRA...CENTRAL AND FAR SOUTHEAST GEORGIA...

CITY           SKY/WX    TMP DP  RH WIND       PRES   REMARKS
THOMSON        MOSUNNY   90  67  45 N6        29.96F HX  93
AUGUSTA-BUSH   MOSUNNY   87  64  46 N13       29.90F
AUGUSTA-DANIEL MOSUNNY   88  64  44 NW9       29.92F
SWAINSBORO     FAIR      88  63  42 NW10      29.93F
VIDALIA        SUNNY     90  61  37 N9        29.92F
EASTMAN        FAIR      92  61  35 N6        29.95F HX  92
HAZLEHURST     FAIR      93  59  32 NW10G17   29.91F HX  92
ALMA           MOSUNNY   92  62  36 NW7       29.91F HX  92
WAYCROSS       MOSUNNY   92  64  38 N3        29.90F HX  93
JESUP          FAIR      86  59  39 NW13      29.90F
BAXLEY         FAIR      91  63  38 NW7G16    29.91S HX  92
BRUNSWICK      MOSUNNY   95  64  36 NW6       29.90S HX  97
SAINT SIMONS   MOSUNNY   90  62  39 W9        29.89F HX  90

$$

SCZ027-028-034-036>038-045-046-048>050-GAZ119-141-302100-
...LAKE AND SUPPLEMENTAL COASTAL OBSERVATIONS...

STATION/POSITION TIME  TEMP    WIND        PRES    WAVE   SWELL
                       AIR SEA DIR/SP/G            HT/PER HT/PER/DIR
                 (UTC) (F)     (DEG/KT/KT) (MB)    (FT/S) (FT/S/D)
WINYAH BAY       NOT AVBL
LAKE MURRAY      1900   81      30/  1/  6 1012.2F
ACE BASIN NERRS  NOT AVBL
FORT PULASKI     1900   82 76  290/ 13/ 16 1012.8F
SAPELO ISLAND    1900   88     300/  9     1013.0F

$$

ANZ835-935-AMZ111-154-330-350-352-354-370-450-454-472-302100-
...C-MAN AND BUOY OBSERVATIONS...

STATION/POSITION TIME  TEMP    WIND        PRES    WAVE   SWELL
                       AIR SEA DIR/SP/G            HT/PER HT/PER/DIR
                 (UTC) (F)     (DEG/KT/KT) (MB)    (FT/S) (FT/S/D)
BUOY 41004       1950   74 78  230/ 12/ 16 1011.7F   4/ 8   3/ 8
BUOY 41008       1950   80 78   30/  2/  4 1012.2F   2/ 9   2/110/ 9
FOLLY BEACH CMAN 1900   76     290/  6/  8 1012.5F
CAPERS NEARSHORE 1908   75 76  270/  8/ 12 1011.8F
FRIPP NEARSHORE  1908   78 76  360/ 10/ 19 1011.7F


STATION/POSITION TIME  TEMP    WIND        PRES    WAVE   SWELL
                       AIR SEA DIR/SP/G            HT/PER HT/PER/DIR
                 (UTC) (F)     (DEG/KT/KT) (MB)    (FT/S) (FT/S/D)
5E ST. MARYS GA  1901      81                N/A     2/ 8
FRYING PAN BUOY  1900   77 78  140/ 12/ 14 1012.5F
BUOY 41025       1850   74 80  160/ 17/ 23 1015.0    6/ 7   2/170/13
CAPE LOOKOUT NC  1900   74      10/  3/  4 1014.1F
BUOY 41002       1950   76 76  180/ 10/ 12 1014.6F   5/ 8   5/ 90/ 8
BUOY 41010       1920   80 80  200/ 10/ 12 1014.7F
ST AUGUSTINE FL  2000   80 82  140/ 11/ 12 1013.7F


$$




USA.gov is the U.S. government's official web portal to all federal, state and local government web resources and services.